EW9434 Weather Reports


Display with metric or nautical units.
time (UTC)temp
F
wind
direction
speed
MPH
gust
MPH
rain 1hr
in
rain 24hr
in
rain mn
in
humidity
%
barometer
mb
20260509144830 60 143 5.0 10.0 0.00 0.18 0.18 86 1007.7
20260509144540 60 95 5.0 10.0 0.00 0.18 0.18 86 1007.5
20260509144520 60 118 4.0 9.0 0.00 0.18 0.18 86 1007.7
20260509143801 60 86 5.0 9.0 0.00 0.18 0.18 89 1007.6
20260509143235 59 93 4.0 8.0 0.00 0.18 0.18 89 1007.7
20260509143055 59 129 4.0 8.0 0.00 0.18 0.18 90 1007.5
20260509142705 59 121 3.0 6.0 0.00 0.18 0.18 92 1007.6
20260509142203 59 88 3.0 7.0 0.00 0.18 0.18 92 1007.6
20260509141659 58 141 4.0 7.0 0.00 0.18 0.18 92 1007.6
20260509141607 58 132 3.0 7.0 0.00 0.18 0.18 92 1007.4
20260509141159 58 127 4.0 9.0 0.00 0.18 0.18 92 1007.6
20260509140653 58 153 3.0 9.0 0.00 0.18 0.18 93 1007.6
20260509140630 59 172 3.0 7.0 0.00 0.18 0.18 94 1007.7
20260509140026 58 144 3.0 6.0 0.00 0.18 0.18 94 1007.5
20260509135626 59 158 2.0 5.0 0.00 0.18 0.18 94 1007.7
20260509135120 59 121 2.0 5.0 0.00 0.18 0.18 95 1007.7
20260509135056 58 97 3.0 9.0 0.00 0.18 0.18 95 1007.7
20260509134549 58 97 1.0 9.0 0.00 0.18 0.18 95 1007.6
20260509134051 58 138 3.0 9.0 0.00 0.18 0.18 95 1007.8
20260509133548 58 124 3.0 7.0 0.00 0.18 0.18 95 1007.7
20260509133034 57 145 3.0 6.0 0.00 0.18 0.18 96 1007.7
20260509133011 57 127 2.0 6.0 0.00 0.18 0.18 96 1007.6
20260509132508 57 132 2.0 6.0 0.00 0.18 0.18 96 1007.7
20260509132007 58 147 2.0 6.0 0.00 0.18 0.18 96 1007.5
20260509131545 56 124 2.0 5.0 0.00 0.18 0.18 96 1007.3
20260509131505 57 99 3.0 8.0 0.00 0.18 0.18 96 1007.5
20260509130947 56 99 3.0 8.0 0.00 0.18 0.18 96 1007.4
20260509130445 56 284 2.0 8.0 0.00 0.18 0.18 96 1007.5
20260509130057 55 286 2.0 8.0 0.00 0.18 0.18 96 1007.5
20260509125945 56 286 2.0 8.0 0.00 0.18 0.18 96 1007.6
20260509125448 56 284 2.0 7.0 0.00 0.18 0.18 96 1007.6
20260509124932 56 284 2.0 7.0 0.00 0.18 0.18 96 1007.5
20260509124656 56 273 2.0 6.0 0.00 0.18 0.18 96 1007.5
20260509124548 55 286 2.0 5.0 0.00 0.18 0.18 96 1007.3
20260509123927 55 288 2.0 8.0 0.00 0.18 0.18 96 1007.4
20260509123423 55 288 3.0 8.0 0.00 0.18 0.18 96 1007.4
20260509123144 55 287 3.0 7.0 0.00 0.18 0.18 96 1007.3
20260509123001 55 288 2.0 8.0 0.00 0.18 0.18 96 1007.1
20260509122640 55 288 2.0 7.0 0.00 0.18 0.18 95 1007.4
20260509121914 55 286 1.0 4.0 0.00 0.18 0.18 96 1007.5
20260509121540 55 286 1.0 5.0 0.00 0.18 0.18 96 1007.1
20260509121408 55 286 2.0 5.0 0.00 0.18 0.18 96 1007.1
20260509120905 55 287 1.0 5.0 0.00 0.18 0.18 96 1007.4
20260509120338 55 288 1.0 3.0 0.00 0.18 0.18 96 1007.5
20260509120029 54 289 0.0 3.0 0.00 0.18 0.18 96 1007.3
20260509115835 55 289 1.0 3.0 0.01 0.18 0.18 96 1007.4
20260509115331 55 289 0.0 3.0 0.01 0.18 0.18 96 1007.5
20260509115056 55 290 0.0 3.0 0.01 0.18 0.18 96 1007.6
20260509114606 54 291 0.0 3.0 0.01 0.18 0.18 95 1007.5
20260509114302 55 291 1.0 3.0 0.01 0.18 0.18 95 1007.6
20260509113801 55 273 1.0 3.0 0.01 0.18 0.18 95 1007.5
20260509113232 55 273 0.0 2.0 0.02 0.18 0.18 95 1007.3
20260509113218 55 273 1.0 3.0 0.02 0.18 0.18 95 1007.2
20260509113033 54 273 0.0 1.0 0.02 0.18 0.18 95 1007.1
20260509112207 55 273 1.0 3.0 0.02 0.18 0.18 95 1007.0
20260509111636 55 273 1.0 3.0 0.02 0.18 0.18 95 1006.8
20260509111546 54 273 1.0 3.0 0.02 0.18 0.18 95 1006.6
20260509111135 55 273 0.0 1.0 0.03 0.18 0.18 95 1007.0
20260509110611 55 273 0.0 2.0 0.03 0.18 0.18 95 1007.2
20260509110042 55 273 0.0 2.0 0.03 0.17 0.17 95 1007.3
20260509105801 55 273 0.0 0.0 0.03 0.17 0.17 95 1007.5
20260509105013 55 273 0.0 0.0 0.03 0.17 0.17 95 1007.5
20260509104503 54 273 0.0 0.0 0.04 0.17 0.17 95 1007.3
20260509104444 55 273 0.0 0.0 0.04 0.17 0.17 95 1007.5
20260509103943 55 273 0.0 0.0 0.04 0.17 0.17 95 1007.6
20260509103417 55 273 0.0 2.0 0.03 0.16 0.16 95 1007.8
20260509103038 54 273 0.0 2.0 0.04 0.16 0.16 95 1007.8
20260509102849 55 273 0.0 2.0 0.04 0.16 0.16 95 1007.8
20260509102344 55 273 0.0 2.0 0.04 0.16 0.16 95 1007.7
20260509102111 55 273 0.0 2.0 0.04 0.16 0.16 95 1007.7
20260509101318 55 273 0.0 2.0 0.03 0.15 0.15 95 1007.7
20260509100819 55 273 0.0 1.0 0.03 0.15 0.15 95 1007.7
20260509100510 55 273 0.0 2.0 0.03 0.14 0.15 95 1007.8
20260509100006 54 273 0.0 2.0 0.03 0.14 0.14 95 1007.6
20260509095735 55 273 0.0 2.0 0.03 0.14 0.14 95 1007.8
20260509095232 55 273 0.0 2.0 0.03 0.14 0.14 95 1008.0
20260509094730 55 290 0.0 2.0 0.03 0.13 0.13 95 1008.0
20260509094531 54 290 0.0 1.0 0.03 0.13 0.13 95 1007.7
20260509094449 55 290 0.0 0.0 0.03 0.13 0.13 95 1007.8
20260509093703 55 290 0.0 0.0 0.03 0.13 0.13 95 1007.8
20260509093201 55 290 0.0 0.0 0.02 0.12 0.12 95 1007.8
20260509093021 54 290 0.0 0.0 0.02 0.12 0.12 95 1007.6
20260509092644 55 290 0.0 0.0 0.03 0.12 0.12 95 1007.8
20260509092146 55 290 0.0 0.0 0.03 0.12 0.12 95 1007.9
20260509091622 55 290 0.0 2.0 0.03 0.12 0.12 95 1007.9
20260509091532 54 290 0.0 2.0 0.03 0.12 0.12 95 1007.8
20260509091121 55 273 0.0 2.0 0.04 0.12 0.12 95 1008.0
20260509090556 55 273 0.0 2.0 0.04 0.12 0.12 95 1008.1
20260509090109 54 273 0.0 2.0 0.03 0.11 0.11 95 1008.1
20260509090051 55 273 0.0 2.0 0.03 0.11 0.11 95 1008.2
20260509085551 55 273 0.0 1.0 0.03 0.11 0.11 95 1008.3
20260509085030 55 273 0.0 2.0 0.04 0.11 0.11 95 1008.4
20260509084550 54 273 0.0 2.0 0.03 0.10 0.10 95 1008.3
20260509084509 55 273 0.0 2.0 0.03 0.10 0.10 95 1008.4
20260509083955 55 273 1.0 3.0 0.03 0.10 0.10 95 1008.5
20260509083456 55 273 1.0 3.0 0.03 0.10 0.10 95 1008.6
20260509083009 54 273 0.0 2.0 0.04 0.10 0.10 94 1008.4
20260509082952 55 273 0.0 2.0 0.04 0.10 0.10 94 1008.5
20260509082453 55 273 0.0 1.0 0.03 0.09 0.09 94 1008.5
20260509082206 55 273 0.0 1.0 0.03 0.09 0.09 94 1008.5
20260509081529 54 273 0.0 1.0 0.03 0.09 0.09 94 1008.4
20260509081451 55 273 0.0 1.0 0.03 0.09 0.09 94 1008.5
20260509080929 55 273 0.0 1.0 0.02 0.08 0.08 94 1008.4
20260509080428 55 273 0.0 1.0 0.03 0.08 0.08 94 1008.4
20260509080106 54 273 0.0 1.0 0.03 0.08 0.08 94 1008.3
20260509075909 55 273 0.0 1.0 0.03 0.08 0.08 94 1008.3
20260509075350 55 273 0.0 1.0 0.04 0.08 0.08 94 1008.4
20260509074841 55 273 0.0 1.0 0.03 0.07 0.07 94 1008.3
20260509074600 55 273 0.0 1.0 0.03 0.07 0.07 94 1008.3
20260509074523 54 273 0.0 1.0 0.03 0.07 0.07 94 1008.2
20260509073836 55 273 0.0 1.0 0.03 0.07 0.07 94 1008.2
20260509073338 55 273 0.0 0.0 0.02 0.06 0.07 94 1008.3
20260509073002 54 273 0.0 0.0 0.02 0.06 0.06 94 1008.2
20260509072814 55 273 0.0 0.0 0.02 0.06 0.06 94 1008.3
20260509072250 55 273 0.0 0.0 0.02 0.06 0.06 94 1008.5
20260509071734 55 273 0.0 0.0 0.02 0.06 0.06 94 1008.6
20260509071553 54 273 0.0 0.0 0.02 0.06 0.06 94 1008.5
20260509071202 55 273 0.0 0.0 0.03 0.06 0.06 94 1008.7
20260509070702 55 273 0.0 0.0 0.02 0.05 0.05 94 1008.9
20260509070202 55 273 0.0 1.0 0.02 0.05 0.05 94 1009.0
20260509070024 54 273 0.0 1.0 0.02 0.05 0.05 94 1008.8
20260509065652 55 273 0.0 2.0 0.02 0.05 0.05 94 1009.0
20260509065151 55 273 0.0 2.0 0.01 0.04 0.04 94 1009.0
20260509064912 55 273 0.0 3.0 0.01 0.04 0.04 94 1009.1
20260509064509 54 273 0.0 3.0 0.01 0.04 0.04 94 1008.9
20260509064124 55 273 0.0 3.0 0.01 0.04 0.04 93 1009.1
20260509063601 55 273 0.0 1.0 0.02 0.04 0.04 94 1009.1
20260509063035 55 273 0.0 2.0 0.02 0.04 0.04 93 1009.2
20260509063007 54 273 0.0 1.0 0.02 0.04 0.04 93 1009.0
20260509062512 55 273 1.0 2.0 0.02 0.04 0.04 93 1009.2
20260509061944 55 273 1.0 3.0 0.02 0.04 0.04 93 1009.3
20260509061555 54 273 0.0 3.0 0.02 0.04 0.04 93 1009.0
20260509061432 55 273 0.0 3.0 0.01 0.03 0.03 93 1009.2
20260509060935 55 273 0.0 1.0 0.01 0.03 0.03 93 1009.1
20260509060704 55 273 0.0 0.0 0.01 0.03 0.03 93 1009.1
20260509060104 55 273 0.0 0.0 0.01 0.03 0.03 92 1008.9
20260509055910 55 273 0.0 2.0 0.01 0.03 0.03 93 1009.0
20260509055344 55 273 0.0 3.0 0.01 0.03 0.03 93 1008.9
20260509054818 55 273 0.0 3.0 0.01 0.03 0.03 92 1008.9
20260509054258 55 273 1.0 3.0 0.01 0.03 0.03 92 1009.0
20260509053757 55 273 1.0 3.0 0.01 0.02 0.02 92 1009.0
20260509053257 55 273 0.0 2.0 0.01 0.02 0.02 92 1009.0
20260509053023 55 273 0.0 2.0 0.01 0.02 0.02 92 1008.9
20260509052949 55 273 0.0 2.0 0.01 0.02 0.02 92 1009.1
20260509052200 55 273 0.0 1.0 0.01 0.02 0.02 92 1009.1
20260509052152 55 273 0.0 3.0 0.02 0.02 0.02 92 1009.1
20260509051619 55 273 1.0 3.0 0.02 0.02 0.02 91 1009.2
20260509051517 55 273 0.0 3.0 0.02 0.02 0.02 91 1009.0
20260509050839 55 273 1.0 3.0 0.02 0.02 0.02 91 1009.1
20260509050117 55 273 1.0 3.0 0.02 0.02 0.02 91 1009.1
20260509050059 55 273 1.0 3.0 0.02 0.02 0.02 91 1009.3
20260509050039 55 273 0.0 3.0 0.02 0.02 0.02 91 1009.0
20260509045115 55 291 0.0 2.0 0.02 0.02 0.02 90 1009.3
20260509044606 55 291 0.0 1.0 0.02 0.02 0.02 90 1009.3
20260509044516 55 273 0.0 1.0 0.02 0.02 0.02 90 1009.2
20260509044104 55 273 0.0 2.0 0.02 0.02 0.02 90 1009.4
20260509044016 56 273 0.0 3.0 0.01 0.01 0.01 89 1009.3
20260509043052 55 273 0.0 3.0 0.01 0.01 0.01 89 1009.3
20260509043014 56 273 0.0 3.0 0.01 0.01 0.01 89 1009.4
20260509042446 56 273 0.0 1.0 0.01 0.01 0.01 89 1009.4
20260509041921 56 273 0.0 2.0 0.00 0.00 0.00 88 1009.5
20260509041834 56 273 0.0 2.0 0.00 0.00 0.00 88 1009.6
20260509041520 55 273 0.0 2.0 0.00 0.00 0.00 88 1009.4
20260509040850 56 273 0.0 2.0 0.00 0.00 0.00 88 1009.5
20260509040322 56 273 1.0 3.0 0.00 0.00 0.00 88 1009.5
20260509040011 56 273 0.0 3.0 0.00 0.00 0.00 87 1009.5
20260509035820 56 273 1.0 3.0 0.00 0.00 0.00 87 1009.5
20260509035251 56 273 0.0 1.0 0.00 0.00 0.00 86 1009.6
20260509034750 56 273 0.0 1.0 0.00 0.00 0.00 86 1009.6
20260509034515 56 273 0.0 1.0 0.00 0.00 0.00 85 1009.6
20260509034226 56 273 0.0 1.0 0.00 0.00 0.00 85 1009.6
20260509033657 56 273 0.0 3.0 0.00 0.00 0.00 84 1009.7
20260509033154 57 273 0.0 3.0 0.00 0.00 0.00 84 1009.7
20260509033014 56 273 0.0 3.0 0.00 0.00 0.00 84 1009.7
20260509032625 57 273 0.0 3.0 0.00 0.00 0.00 84 1009.7
20260509032351 57 273 0.0 3.0 0.00 0.00 0.00 83 1009.7
20260509031755 57 273 0.0 3.0 0.00 0.00 0.00 83 1009.7
20260509031639 57 291 0.0 3.0 0.00 0.00 0.00 83 1009.7
20260509031506 56 273 1.0 2.0 0.00 0.00 0.00 83 1009.6
20260509030527 57 273 1.0 3.0 0.00 0.00 0.00 82 1009.8
20260509030103 57 273 0.0 5.0 0.00 0.00 0.00 82 1009.9
20260509030025 57 290 1.0 5.0 0.00 0.00 0.00 82 1009.9
20260509025456 57 290 1.0 5.0 0.00 0.00 0.00 81 1009.8
20260509024956 57 289 1.0 4.0 0.00 0.00 0.00 81 1009.9
20260509024556 57 288 0.0 3.0 0.00 0.00 0.00 81 1009.9
20260509024425 57 288 1.0 4.0 0.00 0.00 0.00 81 1009.9
20260509023924 58 288 1.0 4.0 0.00 0.00 0.00 81 1009.9
20260509023357 58 288 2.0 5.0 0.00 0.00 0.00 80 1009.9
20260509023112 58 288 2.0 5.0 0.00 0.00 0.00 80 1009.8
20260509023045 57 288 1.0 5.0 0.00 0.00 0.00 80 1009.8
20260509022350 58 284 1.0 5.0 0.00 0.00 0.00 78 1009.8
20260509021843 58 285 2.0 5.0 0.00 0.00 0.00 78 1009.5
20260509021535 58 285 2.0 5.0 0.00 0.00 0.00 78 1009.4
20260509021342 58 273 2.0 4.0 0.00 0.00 0.00 78 1009.4
20260509020817 58 291 2.0 4.0 0.00 0.00 0.00 78 1009.4
20260509020312 58 290 2.0 4.0 0.00 0.00 0.00 77 1009.4
20260509020110 58 290 1.0 4.0 0.00 0.00 0.00 77 1009.3
20260509015810 59 290 2.0 4.0 0.00 0.00 0.00 76 1009.4
20260509015306 59 290 2.0 4.0 0.00 0.00 0.00 76 1009.4
20260509014805 59 290 2.0 4.0 0.00 0.00 0.00 75 1009.4
20260509014536 58 290 2.0 4.0 0.00 0.00 0.00 75 1009.3
20260509014239 59 289 1.0 3.0 0.00 0.00 0.00 74 1009.4
20260509013713 59 288 1.0 3.0 0.00 0.00 0.00 74 1009.5
20260509013146 59 290 1.0 3.0 0.00 0.00 0.00 73 1009.4
20260509013004 59 290 0.0 3.0 0.00 0.00 0.00 73 1009.3
20260509012621 60 273 1.0 3.0 0.00 0.00 0.00 72 1009.3
20260509012111 60 273 2.0 9.0 0.00 0.00 0.00 71 1009.3
20260509011832 61 273 3.0 9.0 0.00 0.00 0.00 68 1009.4
20260509011605 60 273 1.0 9.0 0.00 0.00 0.00 68 1009.3
20260509011044 62 273 3.0 7.0 0.00 0.00 0.00 66 1009.5
20260509010757 62 288 2.0 7.0 0.00 0.00 0.00 61 1009.3
20260509010038 63 286 1.0 3.0 0.00 0.00 0.00 57 1009.3
20260509010015 63 286 2.0 3.0 0.00 0.00 0.00 58 1009.3
20260509005531 63 286 1.0 3.0 0.00 0.00 0.00 55 1009.2
20260509005030 64 287 1.0 2.0 0.00 0.00 0.00 55 1008.9
20260509004519 63 287 0.0 2.0 0.00 0.00 0.00 53 1008.7
20260509004501 64 286 1.0 2.0 0.00 0.00 0.00 53 1008.7
20260509004002 64 287 1.0 2.0 0.00 0.00 0.00 53 1008.7
20260509003458 64 286 1.0 2.0 0.00 0.00 0.00 53 1008.5
20260509003034 64 286 0.0 2.0 0.00 0.00 0.00 54 1008.5
20260509002954 64 286 1.0 2.0 0.00 0.00 0.00 54 1008.5
20260509002650 64 286 1.0 2.0 0.00 0.00 0.00 51 1008.6
20260509002150 64 286 1.0 2.0 0.00 0.00 0.00 52 1008.6
20260509001548 64 286 0.0 2.0 0.00 0.00 0.00 52 1008.7
20260509001358 64 286 1.0 2.0 0.00 0.00 0.00 52 1008.7
20260509000837 64 286 1.0 2.0 0.00 0.00 0.00 52 1008.9
20260509000333 64 286 1.0 2.0 0.00 0.00 0.00 53 1008.7
20260509000108 64 286 0.0 2.0 0.00 0.00 0.00 53 1008.8
20260508235811 64 287 1.0 2.0 0.00 0.00 0.00 53 1008.7
20260508235251 64 286 0.0 1.0 0.00 0.00 0.00 53 1008.7
20260508234755 64 286 0.0 0.0 0.00 0.00 0.00 56 1008.6
20260508234507 64 286 0.0 0.0 0.00 0.00 0.00 57 1008.7
20260508234233 64 286 0.0 0.0 0.00 0.00 0.00 57 1008.6
20260508233730 65 286 0.0 3.0 0.00 0.00 0.00 56 1008.5
20260508233222 65 286 1.0 3.0 0.00 0.00 0.00 55 1008.5
20260508233040 64 286 0.0 3.0 0.00 0.00 0.00 55 1008.6
20260508232917 65 286 1.0 3.0 0.00 0.00 0.00 54 1008.6
20260508232153 65 286 1.0 3.0 0.00 0.00 0.00 54 1008.9
20260508231917 66 286 1.0 3.0 0.00 0.00 0.00 53 1008.7
20260508231556 65 286 0.0 3.0 0.00 0.00 0.00 54 1008.8
20260508231152 66 286 1.0 8.0 0.00 0.00 0.00 52 1008.7
20260508230859 66 286 3.0 8.0 0.00 0.00 0.00 50 1008.6
20260508230134 66 286 3.0 9.0 0.00 0.00 0.00 49 1008.5
20260508230105 66 286 2.0 9.0 0.00 0.00 0.00 49 1008.5
20260508225831 67 286 2.0 9.0 0.00 0.00 0.00 48 1008.6
20260508225040 67 286 2.0 4.0 0.00 0.00 0.00 48 1008.5
20260508224743 67 286 2.0 9.0 0.00 0.00 0.00 46 1008.4
20260508224533 67 286 1.0 9.0 0.00 0.00 0.00 46 1008.5
20260508224505 67 286 3.0 9.0 0.00 0.00 0.00 44 1008.4
20260508223456 67 100 3.0 8.0 0.00 0.00 0.00 44 1008.3
20260508223159 68 159 3.0 8.0 0.00 0.00 0.00 44 1008.4
20260508223102 67 126 2.0 8.0 0.00 0.00 0.00 43 1008.5
20260508222434 68 105 3.0 8.0 0.00 0.00 0.00 43 1008.4
20260508222130 68 24 2.0 5.0 0.00 0.00 0.00 44 1008.4
20260508221515 67 139 3.0 5.0 0.00 0.00 0.00 43 1008.4
20260508221348 68 147 2.0 7.0 0.00 0.00 0.00 43 1008.3
20260508220846 68 133 2.0 6.0 0.00 0.00 0.00 43 1008.4
20260508220331 68 133 3.0 9.0 0.00 0.00 0.00 42 1008.4
20260508220113 67 142 2.0 10.0 0.00 0.00 0.00 42 1008.5
20260508215811 68 130 3.0 10.0 0.00 0.00 0.00 42 1008.4
20260508215249 68 144 4.0 12.0 0.00 0.00 0.00 42 1008.4
20260508215209 68 149 5.0 12.0 0.00 0.00 0.00 42 1008.3
20260508214656 67 161 4.0 11.0 0.00 0.00 0.00 42 1008.3
20260508214502 67 109 5.0 11.0 0.00 0.00 0.00 41 1008.4
20260508213708 67 141 4.0 11.0 0.00 0.00 0.00 43 1008.3
20260508213208 68 154 4.0 10.0 0.00 0.00 0.00 43 1008.4
20260508213037 67 165 4.0 10.0 0.00 0.00 0.00 42 1008.5
20260508212647 68 189 4.0 9.0 0.00 0.00 0.00 42 1008.4
20260508212147 68 174 4.0 9.0 0.00 0.00 0.00 43 1008.5
20260508211647 68 224 3.0 9.0 0.00 0.00 0.00 42 1008.5
20260508211533 67 170 3.0 9.0 0.00 0.00 0.00 43 1008.7
20260508211142 68 132 3.0 9.0 0.00 0.00 0.00 42 1008.6
20260508210624 68 148 3.0 9.0 0.00 0.00 0.00 42 1008.5
20260508210036 67 122 1.0 9.0 0.00 0.00 0.00 42 1008.9
20260508205558 67 119 4.0 10.0 0.00 0.00 0.00 41 1008.9
20260508205037 67 160 5.0 12.0 0.00 0.00 0.00 41 1009.1
20260508204731 67 146 5.0 12.0 0.00 0.00 0.00 41 1009.2
20260508204552 67 162 5.0 12.0 0.00 0.00 0.00 40 1009.3
20260508203953 67 121 4.0 12.0 0.00 0.00 0.00 43 1009.3
20260508203429 67 198 4.0 11.0 0.00 0.00 0.00 42 1009.4
20260508203059 67 94 2.0 14.0 0.00 0.00 0.00 45 1009.5
20260508202931 68 238 5.0 10.0 0.00 0.00 0.00 42 1009.4
20260508202925 67 324 5.0 14.0 0.00 0.00 0.00 43 1009.4
20260508201905 68 170 5.0 14.0 0.00 0.00 0.00 42 1009.5
20260508201521 67 205 6.0 14.0 0.00 0.00 0.00 41 1009.6
20260508201405 68 174 4.0 14.0 0.00 0.00 0.00 44 1009.5
20260508200905 68 170 5.0 16.0 0.00 0.00 0.00 42 1009.6
20260508200338 68 228 5.0 16.0 0.00 0.00 0.00 41 1009.6
20260508200110 67 167 5.0 12.0 0.00 0.00 0.00 43 1009.7
20260508195813 67 193 5.0 12.0 0.00 0.00 0.00 42 1009.5
20260508195312 67 138 5.0 13.0 0.00 0.00 0.00 42 1009.7
20260508194748 67 207 4.0 11.0 0.00 0.00 0.00 41 1009.7
20260508194618 67 219 4.0 11.0 0.00 0.00 0.00 42 1009.8
20260508194220 68 141 5.0 11.0 0.00 0.00 0.00 40 1009.8
20260508193717 68 218 6.0 16.0 0.00 0.00 0.00 39 1009.7
20260508193211 68 205 6.0 16.0 0.00 0.00 0.00 39 1009.8
20260508193125 68 206 6.0 15.0 0.00 0.00 0.00 39 1009.9
20260508193041 67 207 6.0 16.0 0.00 0.00 0.00 41 1009.9
20260508192118 68 174 6.0 15.0 0.00 0.00 0.00 40 1009.9
20260508191615 68 217 7.0 17.0 0.00 0.00 0.00 38 1010.0
20260508191546 68 194 5.0 17.0 0.00 0.00 0.00 38 1010.1
20260508191110 69 195 7.0 17.0 0.00 0.00 0.00 37 1010.0
20260508190830 69 126 6.0 15.0 0.00 0.00 0.00 39 1010.0
20260508190106 69 139 6.0 11.0 0.00 0.00 0.00 40 1010.1
20260508190036 68 156 5.0 15.0 0.00 0.00 0.00 40 1010.2
20260508185801 68 145 7.0 16.0 0.00 0.00 0.00 40 1010.3
20260508185025 69 202 6.0 16.0 0.00 0.00 0.00 39 1010.5
20260508184550 69 159 8.0 16.0 0.00 0.00 0.00 41 1010.5
20260508184522 69 123 7.0 16.0 0.00 0.00 0.00 42 1010.4
20260508184025 69 89 6.0 15.0 0.00 0.00 0.00 42 1010.5
20260508183521 68 95 6.0 12.0 0.00 0.00 0.00 42 1010.6
20260508183035 67 158 5.0 20.0 0.00 0.00 0.00 42 1010.8
20260508182956 68 104 7.0 20.0 0.00 0.00 0.00 39 1010.7
20260508182429 68 203 5.0 18.0 0.00 0.00 0.00 41 1010.7
20260508181902 68 203 6.0 18.0 0.00 0.00 0.00 40 1010.8
20260508181525 68 84 3.0 18.0 0.00 0.00 0.00 41 1011.0
20260508181335 68 138 8.0 18.0 0.00 0.00 0.00 40 1011.0
20260508180810 68 157 7.0 18.0 0.00 0.00 0.00 43 1010.9
20260508180243 67 172 7.0 18.0 0.00 0.00 0.00 41 1011.1
20260508175715 67 175 6.0 18.0 0.00 0.00 0.00 39 1011.3
20260508175213 68 207 4.0 11.0 0.00 0.00 0.00 43 1011.3
20260508174907 67 107 5.0 15.0 0.00 0.00 0.00 48 1011.3
20260508174556 67 138 2.0 12.0 0.00 0.00 0.00 45 1011.4
20260508174143 67 136 7.0 15.0 0.00 0.00 0.00 43 1011.3
20260508173632 66 163 7.0 17.0 0.00 0.00 0.00 43 1011.5
20260508173136 66 132 5.0 17.0 0.00 0.00 0.00 44 1011.6
20260508173104 66 145 8.0 17.0 0.00 0.00 0.00 44 1011.8
20260508172827 66 105 5.0 14.0 0.00 0.00 0.00 46 1011.8
20260508172041 67 163 5.0 14.0 0.00 0.00 0.00 44 1011.8
20260508171555 66 159 3.0 9.0 0.00 0.00 0.00 46 1012.1
20260508171515 67 215 5.0 15.0 0.00 0.00 0.00 45 1011.9
20260508171011 67 118 7.0 15.0 0.00 0.00 0.00 45 1011.9
20260508170519 67 193 7.0 18.0 0.00 0.00 0.00 42 1011.9
20260508170021 67 172 5.0 18.0 0.00 0.00 0.00 45 1012.2
20260508165943 67 165 7.0 18.0 0.00 0.00 0.00 45 1012.2
20260508165417 67 88 8.0 20.0 0.00 0.00 0.00 44 1012.2
20260508164850 67 164 8.0 20.0 0.00 0.00 0.00 44 1012.4
20260508164504 67 207 6.0 19.0 0.00 0.00 0.00 45 1012.6
20260508164324 67 149 7.0 19.0 0.00 0.00 0.00 43 1012.6
20260508163758 67 74 7.0 19.0 0.00 0.00 0.00 45 1012.6
20260508163228 66 146 7.0 19.0 0.00 0.00 0.00 46 1012.6
20260508163027 66 103 7.0 16.0 0.00 0.00 0.00 46 1012.9
20260508162952 66 150 8.0 19.0 0.00 0.00 0.00 44 1012.7
20260508162158 66 127 8.0 19.0 0.00 0.00 0.00 45 1012.8
20260508161658 66 158 7.0 14.0 0.00 0.00 0.00 46 1012.7
20260508161542 65 172 6.0 12.0 0.00 0.00 0.00 47 1013.0
20260508161154 66 122 6.0 15.0 0.00 0.00 0.00 47 1012.8
20260508160650 66 99 5.0 15.0 0.00 0.00 0.00 48 1012.8
20260508160147 65 207 6.0 15.0 0.00 0.00 0.00 50 1012.8
20260508160129 65 149 5.0 14.0 0.00 0.00 0.00 48 1013.1
20260508155644 65 61 6.0 15.0 0.00 0.00 0.00 48 1013.1
20260508155142 65 134 7.0 20.0 0.00 0.00 0.00 46 1013.1
20260508154637 65 210 7.0 20.0 0.00 0.00 0.00 47 1013.2
20260508154522 64 167 8.0 19.0 0.00 0.00 0.00 47 1013.3
20260508154111 65 228 6.0 15.0 0.00 0.00 0.00 49 1013.2
20260508153546 64 130 7.0 15.0 0.00 0.00 0.00 48 1013.3
20260508153043 64 186 6.0 15.0 0.00 0.00 0.00 50 1013.5
20260508153017 64 226 6.0 15.0 0.00 0.00 0.00 50 1013.4
20260508152517 64 125 6.0 15.0 0.00 0.00 0.00 51 1013.4
20260508152429 63 162 6.0 17.0 0.00 0.00 0.00 49 1013.4
20260508151503 63 153 4.0 17.0 0.00 0.00 0.00 51 1013.7
20260508151445 63 147 6.0 17.0 0.00 0.00 0.00 51 1013.5
20260508150944 63 124 6.0 15.0 0.00 0.00 0.00 53 1013.5
20260508150438 62 159 6.0 15.0 0.00 0.00 0.00 50 1013.6
20260508150021 62 210 5.0 17.0 0.00 0.00 0.00 51 1013.9
20260508145937 62 165 7.0 17.0 0.00 0.00 0.00 50 1013.5
20260508145433 62 199 7.0 17.0 0.00 0.00 0.00 50 1013.5